Home > Weather > Hyderabad > Past weeks

Flag for Pakistan Weather for the Past 2 Weeks in Hyderabad, Sindh, Pakistan

Now
46 °F

Fog.


Feels Like: 46 °F
Forecast: 54 / 74 °F
Wind: No wind

Location: Nawabshah Airport

Current Time: Feb 10, 2016 at 7:50:06 AM

Latest Report: Feb 10, 2016 at 6:55 AM


Visibility: 1 mi

Pressure: 29.89 "Hg

Humidity: 87%

Dew point: 43 °F

Location of HyderabadLocation

Historic Weather in Hyderabad — Graph

°F

Hyderabad Temperature Yesterday

Maximum temperature yesterday: 86 °F (at 1:55 PM)
Minimum temperature yesterday: 48 °F (at 7:00 AM)
Average temperature yesterday: 65 °F

High & Low Weather Summary for the Past Weeks

 TemperatureHumidityPressure
High88 °F (Jan 29, 2:55 PM)93% (Feb 7, 7:00 AM)30.18 "Hg (Feb 7, 7:00 AM)
Low45 °F (Feb 7, 8:00 AM)17% (Feb 9, 2:55 PM)29.83 "Hg (Feb 6, 3:00 PM)
Average65 °F56%29.99 "Hg
* Reported Jan 26 6:55 AM — Feb 10 5:55 AM, Hyderabad, Weather by CustomWeather, © 2016

Note: Actual official high and low records may vary slightly from our data, if they occured in-between our weather recording intervals... More about our weather records

Advertising

Hyderabad Weather History for the Previous 24 Hours

 ConditionsComfort  
Time TempWeatherWind HumidityBarometerVisibility
5:55 AM
Wed, Feb 10
52 °FFog.No wind82%29.89 "Hg1 mi
4:55 AM52 °FFog.No wind82%29.89 "Hg1 mi
3:55 AM54 °FClear.No wind72%29.86 "Hg1 mi
12:55 AM59 °FClear.No wind63%29.89 "Hg2 mi
11:55 PM
Tue, Feb 9
61 °FClear.No wind59%29.92 "Hg2 mi
10:55 PM61 °FClear.5 mph59%29.95 "Hg2 mi
9:55 PM63 °FClear.5 mph56%29.92 "Hg3 mi
8:55 PM64 °FClear.5 mph52%29.89 "Hg3 mi
7:55 PM72 °FClear.No wind44%29.89 "Hg3 mi
6:55 PM75 °FClear.No wind39%29.89 "Hg3 mi
5:55 PM81 °FClear.5 mph26%29.86 "Hg3 mi
4:55 PM84 °FClear.5 mph23%29.86 "Hg3 mi
2:55 PM86 °FClear.5 mph17%29.92 "Hg3 mi
1:55 PM86 °FClear.5 mph20%29.92 "Hg2 mi
1:00 PM81 °FClear.5 mph26%29.95 "Hg2 mi
12:00 PM73 °FClear.No wind31%29.98 "Hg2 mi
11:00 AM66 °FClear.5 mph46%30.01 "Hg2 mi
10:00 AM59 °FClear.5 mph63%30.04 "Hg2 mi
9:00 AM54 °FClear.3 mph72%30.01 "Hg1 mi
8:00 AM50 °FFog.3 mph76%30.01 "Hg1 mi
7:00 AM48 °FFog.3 mph87%29.98 "Hg1 mi
Weather by CustomWeather, © 2016

See weather overviewHow to use our weather pages